Location: Dalton Gardens
(47.7327°N, 116.7697°W)
Time: 13:29:33
(UTC+00:00)

N. Korean satellite - Visible Passes

Search period start: 02 December 2022 00:00
Search period end: 12 December 2022 00:00
Orbit: 421 x 453 km, 97.3° (Epoch: 01 December)

Date Brightness Start Highest point End Pass type
(mag) Time Alt. Az. Time Alt. Az. Time Alt. Az.
02 Dec 9.8 01:19:39 10° WSW 01:21:25 13° W 01:23:11 10° WNW visible
02 Dec 8.6 12:34:36 10° NE 12:37:35 27° E 12:40:30 10° SSE visible
02 Dec 7.7 14:07:18 10° NNW 14:09:57 21° WNW 14:12:35 10° WSW visible
03 Dec 8.2 00:39:11 10° SSW 00:42:21 37° W 00:45:34 10° NNW visible
03 Dec 6.3 13:27:56 10° N 13:31:20 60° WNW 13:34:40 10° SSW visible
04 Dec 7.7 12:49:12 10° NNE 12:52:27 40° E 12:55:39 10° S visible
04 Dec 8.1 14:22:37 10° NNW 14:24:38 15° WNW 14:26:38 10° W visible
05 Dec 9.0 00:54:21 10° SSW 00:57:12 25° W 01:00:06 10° NW visible
05 Dec 9.6 12:11:22 10° NE 12:13:19 14° E 12:15:14 10° SE visible
05 Dec 6.8 13:42:48 10° N 13:46:01 39° WNW 13:49:11 10° SW visible
06 Dec 6.8 13:03:45 10° NNE 13:07:09 64° E 13:10:29 10° S visible
06 Dec 8.4 14:38:22 10° NW 14:39:08 11° WNW 14:39:54 10° WNW visible
07 Dec 9.6 01:09:35 10° SW 01:11:56 17° W 01:14:18 10° NW visible
07 Dec 9.0 12:25:23 10° NE 12:28:02 21° E 12:30:38 10° SE visible
07 Dec 7.3 13:57:37 10° N 14:00:31 26° WNW 14:03:23 10° SW visible
08 Dec 7.5 00:29:27 10° S 00:32:45 51° W 00:36:06 10° NNW visible
08 Dec 6.2 13:18:15 10° N 13:21:40 82° WNW 13:25:01 10° SSW visible
09 Dec 9.9 01:25:09 10° WSW 01:26:33 12° W 01:27:57 10° WNW visible
09 Dec 8.3 12:39:30 10° NNE 12:42:34 30° E 12:45:33 10° SSE visible
09 Dec 7.8 14:12:25 10° NNW 14:14:52 19° WNW 14:17:17 10° WSW visible
10 Dec 8.4 00:44:06 10° SSW 00:47:13 33° W 00:50:21 10° NNW visible
10 Dec 9.9 12:02:19 10° ENE 12:03:11 11° E 12:04:03 10° ESE visible
10 Dec 6.4 13:32:42 10° N 13:36:01 52° WNW 13:39:16 10° SSW visible
11 Dec 7.4 12:53:38 10° NNE 12:56:55 45° E 13:00:07 10° S visible
11 Dec 8.2 14:27:19 10° NNW 14:29:02 13° WNW 14:30:44 10° W visible
